Regional Weather Roundup
Issued by NWS State College, PA

Home | Current Version | Previous Version | Text Only | Print | Product List | Glossary On
Versions: 1 2 3 4 5 6 7 8 9 10 11 12 13 14 15 16 17 18 19 20 21 22 23 24 25 26 27 28 29 30 31 32 33 34 35 36 37 38 39 40 41 42 43 44 45 46 47 48 49 50
000
ASUS41 KCTP 230210
RWRCTP

REGIONAL WEATHER ROUNDUP
NATIONAL WEATHER SERVICE STATE COLLEGE PA
1000 PM EDT TUE JUL 22 2014

Note: "fair" indicates few or no clouds below 12,000 feet with no
significant weather and/or obstructions to visibility.

* = STATION THAT DOES NOT REPORT PRECIPITATION /E.G. RAIN...SNOW...ETC/
    THUNDER OR FOG.

PAZ002>004-007>009-013>016-020>023-029>032-230300-
WESTERN PENNSYLVANIA

CITY           SKY/WX    TMP DP  RH WIND       PRES   REMARKS
ERIE           FAIR      76  66  71 S5        29.98F
MEADVILLE      FAIR      76  67  73 S5        30.04
FRANKLIN*      FAIR      73  64  73 S6        30.07S
NEW CASTLE       N/A     76  69  79 CALM      30.04F
BEAVER COUNTY  NOT AVBL
BUTLER*        FAIR      73  66  78 CALM      30.08R
PITTSBURGH INT FAIR      80  68  66 SW3       30.06S
PITTSBURGH     FAIR      80  67  64 S6        30.06S
INDIANA*       PTCLDY    77  70  78 S5        30.11S
LATROBE        PTCLDY    77  72  83 S9        30.08S
WASHINGTON CO* FAIR      70  66  88 CALM      30.08R
$$

PAZ004>006-010>012-017>019-024>028-033>037-041-042-045-046-049>053-230300-
CENTRAL PENNSYLVANIA

CITY           SKY/WX    TMP DP  RH WIND       PRES   REMARKS
BRADFORD       FAIR      70  65  84 SE3       30.09F
DUBOIS         FAIR      76  67  73 S3        30.08S
CLEARFIELD     FAIR      75  69  81 S3        30.09S
JOHNSTOWN      FAIR      72  68  87 S3        30.14S
ALTOONA        MOCLDY    76  70  82 S3        30.11R
STATE COLLEGE  FAIR      76  69  79 S5        30.08F
WILLIAMSPORT   FAIR      79  69  71 CALM      30.03S
SELINSGROVE    FAIR      76  70  82 CALM      30.06R
FT INDIANTOWN  FAIR      74  74  99 N1        30.09R
CAPITAL CITY   FAIR      78  69  73 S7        30.07S
HARRISBURG     FAIR      80  69  69 S7        30.07R
YORK           FAIR      76  68  76 CALM      30.09R
$$

PAZ038>040-043-044-047-048-054-055-060>062-067>071-230300-
EASTERN PENNSYLVANIA

CITY           SKY/WX    TMP DP  RH WIND       PRES   REMARKS
SCRANTON       FAIR      78  68  71 S6        30.07S
MOUNT POCONO   FAIR      73  67  81 SW7       30.13S
ALLENTOWN      FAIR      78  68  71 SW7       30.07S
QUAKERTOWN*    FAIR      75  68  78 S3        30.10S
READING        FAIR      78  66  66 S6        30.07S
LANCASTER      FAIR      76  66  71 S6        30.09R
COATESVILLE    FAIR      73  68  83 CALM      30.12S
POTTSTOWN      FAIR      76  65  68 S7        30.11R
BLUE BELL      FAIR      77  64  65 S6        30.09S
DOYLESTOWN     FAIR      76  65  68 S7        30.09R
WILLOW GROVE   NOT AVBL
NORTH PHILA    FAIR      79  61  53 SW8       30.10S
PHILADELPHIA   FAIR      77  59  53 S8        30.10R
$$


USA.gov is the U.S. government's official web portal to all federal, state and local government web resources and services.